Location: Praha
(50.0830°N, 14.4670°E)
Time: 07:11:05
(UTC+01:00)

ATV-4 - Visible Passes

Search period start: 21 November 2018 00:00
Search period end: 01 December 2018 00:00
Orbit: 308 x 318 km, 51.6° (Epoch: 02 November)

Date Brightness Start Highest point End Pass type
(mag) Time Alt. Az. Time Alt. Az. Time Alt. Az.
21 Nov 5.6 00:27:11 10° WNW 00:57:01 47° ESE 01:09:14 10° ESE visible
21 Nov 5.2 03:06:18 59° SW 03:06:18 59° SW 03:24:57 10° SSE visible
21 Nov 5.8 05:15:34 24° W 05:20:04 25° WSW 05:33:55 10° SSW visible
21 Nov 5.2 17:26:18 10° SSE 17:34:55 24° ESE 17:42:49 17° ENE visible
21 Nov 4.6 19:35:53 10° SSW 19:48:00 63° SE 19:52:02 54° E visible
21 Nov 4.9 21:50:19 10° WSW 22:29:50 - E 22:01:17 63° W visible
22 Nov 5.8 00:06:57 10° WNW 00:39:08 37° ESE 00:48:53 10° ESE visible
22 Nov 5.2 02:48:27 59° SSW 02:48:27 59° SSW 03:05:03 10° SSE visible
22 Nov 5.7 04:57:45 27° W 05:00:09 28° WSW 05:14:45 10° SSW visible
22 Nov 5.3 17:07:24 10° SSE 17:15:24 21° ESE 17:24:25 13° ENE visible
22 Nov 4.6 19:16:23 10° SSW 19:28:07 60° SE 19:33:40 47° E visible
22 Nov 4.8 21:30:34 10° WSW 22:12:16 - E 21:42:55 74° WSW visible
22 Nov 5.8 23:47:05 10° WNW 00:21:36 29° ESE 00:28:49 10° ESE visible
23 Nov 5.3 02:30:56 54° S 02:30:56 54° S 02:45:26 10° SSE visible
23 Nov 5.7 04:40:16 30° WSW 04:40:32 30° WSW 04:55:49 10° SSW visible
23 Nov 5.4 16:48:55 10° SE 16:56:14 19° ESE 17:06:10 10° ENE visible
23 Nov 4.6 18:57:15 10° SSW 19:08:37 57° SE 19:15:33 40° E visible
23 Nov 4.7 21:11:12 10° WSW 21:24:50 84° WSW 21:24:50 84° WSW visible
23 Nov 5.7 23:27:34 10° W 00:04:22 22° ESE 00:09:04 10° ESE visible
24 Nov 5.5 02:13:44 48° SSE 02:13:44 48° SSE 02:26:06 10° SE visible
24 Nov 5.6 04:23:06 32° WSW 04:23:06 32° WSW 04:37:07 10° SSW visible
24 Nov 5.5 16:30:54 10° SE 16:37:25 17° E 16:45:57 10° ENE visible
24 Nov 4.6 18:38:28 10° SSW 18:49:29 54° SE 18:57:42 35° ENE visible
24 Nov 4.7 20:52:10 10° WSW 21:06:22 89° SSE 21:07:00 86° E visible
24 Nov 5.5 23:08:25 10° W 23:47:28 15° ESE 23:49:39 10° ESE visible
25 Nov 5.7 01:56:52 40° SSE 01:56:52 40° SSE 02:07:05 10° SE visible
25 Nov 5.7 04:06:16 32° SW 04:06:16 32° SW 04:18:40 10° S visible
25 Nov 4.7 18:20:03 10° SSW 18:30:43 51° SE 18:40:07 30° ENE visible
25 Nov 4.7 20:33:30 10° WSW 20:47:17 87° SSE 20:49:27 77° E visible
25 Nov 5.4 22:49:37 10° W 23:30:52 - ESE 22:58:46 47° WNW visible
26 Nov 5.9 01:06:45 10° WNW 01:40:17 33° SE 01:48:21 10° SE visible
26 Nov 5.7 03:49:42 32° SW 03:49:42 32° SW 04:00:29 10° S visible
26 Nov 4.7 18:01:59 10° SSW 18:12:19 48° SE 18:22:49 25° ENE visible
26 Nov 4.6 20:15:11 10° WSW 20:28:33 86° SSE 20:32:10 68° E visible
26 Nov 5.2 22:31:10 10° W 23:14:32 - ESE 22:41:31 54° WNW visible
27 Nov 6.0 00:48:14 10° WNW 01:23:59 26° SE 01:29:56 10° SE visible
27 Nov 5.8 03:33:26 30° SSW 03:33:26 30° SSW 03:42:34 10° S visible
27 Nov 4.7 17:44:15 10° SSW 17:54:17 45° SE 18:05:47 22° ENE visible
27 Nov 4.6 19:57:14 10° WSW 20:10:12 84° SSE 20:15:10 61° ENE visible
27 Nov 5.1 22:13:05 10° W 22:24:33 61° WNW 22:24:33 61° WNW visible
28 Nov 6.1 00:30:04 10° WNW 01:07:58 20° SE 01:11:49 10° SE visible
28 Nov 5.9 03:17:26 27° SSW 03:17:26 27° SSW 03:24:56 10° S visible
28 Nov 4.8 17:26:53 10° S 17:36:36 42° ESE 17:49:03 18° ENE visible
28 Nov 4.6 19:39:37 10° WSW 19:52:14 83° SSE 19:58:28 54° ENE visible
28 Nov 5.0 21:55:21 10° W 22:07:52 68° WNW 22:07:52 68° WNW visible
29 Nov 6.0 00:12:15 10° WNW 00:52:13 15° SE 00:54:01 10° SE visible
29 Nov 6.0 03:01:43 24° S 03:01:43 24° S 03:07:35 10° S visible
29 Nov 4.8 17:09:52 10° S 17:19:17 40° ESE 17:32:37 15° ENE visible
29 Nov 4.6 19:22:21 10° WSW 19:34:37 81° SSE 19:42:03 48° ENE visible
29 Nov 4.9 21:37:58 10° W 21:51:29 75° WNW 21:51:29 75° WNW visible
29 Nov 5.8 23:54:48 10° WNW 00:36:44 10° SE 00:00:55 30° WNW visible
30 Nov 6.1 02:46:15 20° S 02:46:15 20° S 02:50:32 10° S visible
30 Nov 4.9 16:53:12 10° S 17:02:19 37° ESE 17:16:29 12° ENE visible
30 Nov 4.5 19:05:27 10° SW 19:17:22 79° SSE 19:25:56 43° ENE visible
30 Nov 4.9 21:20:57 10° W 21:35:24 82° NW 21:35:24 82° NW visible
